Other Public Products
Issued by NWS Charleston, SC

Current Version | Previous Version | Text Only | Print | Product List | Glossary Off
Versions: 1 2 3 4 5 6 7 8 9 10 11 12 13 14 15 16 17 18 19 20 21 22 23 24 25 26 27 28 29 30 31 32 33 34 35 36 37 38 39 40 41 42 43 44 45 46 47 48 49 50
000 FPUS82 KCHS 250012 OPUCHS TEST...KCHS/KSAV Gateway Observations...TEST National Weather Service Charleston SC 800 PM EDT TUE APR 24 2018 NOTE: "fair" indicates few or no clouds below 12,000 feet with no significant weather and/or obstructions to visibility. SCZ050-WAZ558-NCZ071-TXZ119-213-PAZ071-DCZ001-FLZ074-172-MI076- NYZ176-178-MAZ016-IL014-TNZ027-NJZ106-GAZ044-MD014-250100- ...Gateway Observations for Charleston International... CITY SKY/WX TMP DP RH WIND PRES REMARKS Chas Airport FAIR 69 58 67 SW12 29.80S 6HR MIN TEMP: 69; 6HR MAX TEMP: 79; Seattle PTSUNNY 75 37 25 N14 30.07F 6HR MIN TEMP: 71; 6HR MAX TEMP: 77; Charlotte LGT RAIN 63 61 93 NE3 29.79R 6HR MIN TEMP: 63; 6HR MAX TEMP: 72; 6HR PCP: 0.86; Dallas DFW PTSUNNY 80 50 34 E6 29.98F 6HR MIN TEMP: 78; 6HR MAX TEMP: 84; Dallas Love PTSUNNY 81 49 32 E9 29.99F 6HR MIN TEMP: 79; 6HR MAX TEMP: 85; Philladelphia CLOUDY 58 45 62 E15 30.16F 6HR MIN TEMP: 58; 6HR MAX TEMP: 63; Wash National CLOUDY 56 52 86 E10 30.05F 6HR MIN TEMP: 56; 6HR MAX TEMP: 63; 6HR PCP: 0.14; Baltimore LGT RAIN 54 53 97 E14 30.07F FOG 6HR MIN TEMP: 54; 6HR MAX TEMP: 64; 6HR PCP: 0.07; Miami FAIR 82 68 62 W10 29.93R 6HR MIN TEMP: 82; 6HR MAX TEMP: 91; Detroit LGT RAIN 52 49 89 E7 29.99S FOG 6HR MIN TEMP: 52; 6HR MAX TEMP: 55; 6HR PCP: 0.18; Newark CLOUDY 57 41 55 SE8 30.22F 6HR MIN TEMP: 57; 6HR MAX TEMP: 63; Laguardia CLOUDY 58 39 49 SE12 30.22S 6HR MIN TEMP: 58; 6HR MAX TEMP: 65; J F K CLOUDY 55 42 61 E15 30.23F 6HR MIN TEMP: 55; 6HR MAX TEMP: 62; Boston Logan CLOUDY 55 31 39 S15 30.26S 6HR MIN TEMP: 55; 6HR MAX TEMP: 69; Ft. Lauderdale MOCLDY 76 73 91 E9 29.92R 6HR MIN TEMP: 76; 6HR MAX TEMP: 91; Chicago O`Hare FAIR 59 47 64 NE8 29.98F 6HR MIN TEMP: 59; 6HR MAX TEMP: 65; Chicago Midway FAIR 59 48 67 NE8 29.98F 6HR MIN TEMP: 59; 6HR MAX TEMP: 64; Houston Bush PTSUNNY 82 60 47 N5 29.97F 6HR MIN TEMP: 80; 6HR MAX TEMP: 85; Houston Hobby PTSUNNY 83 56 39 NW5 29.97F 6HR MIN TEMP: 80; 6HR MAX TEMP: 86; Nashville MOCLDY 62 54 74 N14 29.91R 6HR MIN TEMP: 61; 6HR MAX TEMP: 67; 6HR PCP: 0.03; Atlanta LGT RAIN 65 56 72 NW13 29.87R 6HR MIN TEMP: 62; 6HR MAX TEMP: 70; 6HR PCP: 0.01; $$ GAZ044-118-TXZ119-213-NCZ071-DCZ001-MDZ014-506-PAZ021-071-NJZ106- NYZ176-178-MAZ106-OHZ011-021-055-MIZ076-KYZ091-ILZ014-INZ047- MNZ060-ONZ431-250100- ...Gateway Observations for Savannah International... CITY SKY/WX TMP DP RH WIND PRES REMARKS Savannah Arpt MOCLDY 71 55 56 W7 29.83S 6HR MIN TEMP: 71; 6HR MAX TEMP: 80; Atlanta LGT RAIN 65 56 72 NW13 29.87R 6HR MIN TEMP: 62; 6HR MAX TEMP: 70; 6HR PCP: 0.01; Charlotte LGT RAIN 63 61 93 NE3 29.79R 6HR MIN TEMP: 63; 6HR MAX TEMP: 72; 6HR PCP: 0.86; Dallas DFW PTSUNNY 80 50 34 E6 29.98F 6HR MIN TEMP: 78; 6HR MAX TEMP: 84; Houston Bush PTSUNNY 82 60 47 N5 29.97F 6HR MIN TEMP: 80; 6HR MAX TEMP: 85; Wash National CLOUDY 56 52 86 E10 30.05F 6HR MIN TEMP: 56; 6HR MAX TEMP: 63; 6HR PCP: 0.14; Wash Dulles LGT RAIN 54 53 97 E13G22 30.03F FOG 6HR MIN TEMP: 54; 6HR MAX TEMP: 60; 6HR PCP: 0.19; Baltimore LGT RAIN 54 53 97 E14 30.07F FOG 6HR MIN TEMP: 54; 6HR MAX TEMP: 64; 6HR PCP: 0.07; Philadelphia CLOUDY 58 45 62 E15 30.16F 6HR MIN TEMP: 58; 6HR MAX TEMP: 63; Newark CLOUDY 57 41 55 SE8 30.22F 6HR MIN TEMP: 57; 6HR MAX TEMP: 63; Laguardia CLOUDY 58 39 49 SE12 30.22S 6HR MIN TEMP: 58; 6HR MAX TEMP: 65; J F K CLOUDY 55 42 61 E15 30.23F 6HR MIN TEMP: 55; 6HR MAX TEMP: 62; Boston CLOUDY 55 31 39 S15 30.26S 6HR MIN TEMP: 55; 6HR MAX TEMP: 69; Pittsburg LGT RAIN 51 50 96 E8 29.98S 6HR MIN TEMP: 51; 6HR MAX TEMP: 54; 6HR PCP: 0.19; Akron CLOUDY 53 48 83 SE13 29.96F 6HR MIN TEMP: 52; 6HR MAX TEMP: 54; 6HR PCP: 0.17; Cleveland LGT RAIN 54 51 90 SE7 29.99S 6HR MIN TEMP: 54; 6HR MAX TEMP: 57; 6HR PCP: 0.15; Cincinnati CLOUDY 55 55 100 N8 29.88F FOG 6HR MIN TEMP: 55; 6HR MAX TEMP: 57; 6HR PCP: 0.06; Columbus CLOUDY 53 53 100 E5 29.89F Detroit LGT RAIN 52 49 89 E7 29.99S FOG 6HR MIN TEMP: 52; 6HR MAX TEMP: 55; 6HR PCP: 0.18; Chicago O`Hare FAIR 59 47 64 NE8 29.98F 6HR MIN TEMP: 59; 6HR MAX TEMP: 65; Minneapolis PTSUNNY 56 36 47 N16 30.18S 6HR MIN TEMP: 56; 6HR MAX TEMP: 65; Indianapolis CLOUDY 55 53 93 N8 29.93S 6HR MIN TEMP: 55; 6HR MAX TEMP: 57; 6HR PCP: TRACE; Toronto Canada LGT RAIN 48 43 81 SE3 30.07F $$

USA.gov is the U.S. government's official web portal to all federal, state and local government web resources and services.